This is the latest recevied weather packets stored in our database for station/object CE7LGA-10. If no packets are shown the sender has not sent any weather packets the latest 10 day(s).
| Time | Temp. | Humidity | Pressure | Rain* | Wind** | Luminosity | Snow |
|---|---|---|---|---|---|---|---|
| 1787845104 | 15.56° C | 66% | 991.6 hPa | - | - | - | - |
| 1787844204 | 15.56° C | 67% | 991.7 hPa | - | - | - | - |
| 1787843304 | 15° C | 67% | 992.1 hPa | - | - | - | - |
| 1787842404 | 15.56° C | 67% | 992.2 hPa | - | - | - | - |
| 1787841504 | 15.56° C | 67% | 992.3 hPa | - | - | - | - |
| 1787840604 | 15° C | 69% | 992.8 hPa | - | - | - | - |
| 1787839703 | 14.44° C | 69% | 993.1 hPa | - | - | - | - |
| 1787838803 | 14.44° C | 70% | 993.7 hPa | - | - | - | - |
| 1787837903 | 14.44° C | 70% | 993.9 hPa | - | - | - | - |
| 1787837003 | 14.44° C | 71% | 994 hPa | - | - | - | - |
| 1787836103 | 14.44° C | 72% | 994 hPa | - | - | - | - |
| 1787835203 | 14.44° C | 72% | 994.3 hPa | - | - | - | - |
| 1787834303 | 14.44° C | 72% | 994.5 hPa | - | - | - | - |
| 1787833403 | 14.44° C | 74% | 994.7 hPa | - | - | - | - |
| 1787832503 | 14.44° C | 74% | 994.5 hPa | - | - | - | - |
| 1787831603 | 14.44° C | 74% | 994.3 hPa | - | - | - | - |
| 1787830702 | 14.44° C | 76% | 994.2 hPa | - | - | - | - |
| 1787829802 | 14.44° C | 83% | 994.2 hPa | - | - | - | - |
| 1787828902 | 13.89° C | 79% | 994.2 hPa | - | - | - | - |
| 1787828002 | 12.78° C | 71% | 994 hPa | - | - | - | - |
| 1787827104 | 12.22° C | 71% | 994.2 hPa | - | - | - | - |
| 1787826204 | 12.22° C | 70% | 994.2 hPa | - | - | - | - |
| 1787825304 | 12.22° C | 70% | 994.2 hPa | - | - | - | - |
| 1787824404 | 12.22° C | 70% | 994.2 hPa | - | - | - | - |
| 1787823504 | 12.78° C | 70% | 994.2 hPa | - | - | - | - |
* Rain since midnight (hover to see other rain measurements)
** Current wind speed in m/s (hover to see current wind gust speed)